Frederick, OK

2:51 AM CST on February 20, 2018 (GMT -0600)
Frederick Municipal

Weather History for KFDR - June, 2013

Change the Weather History Date:

Monday, June 24, 2013

  Actual Average (KLTS) Record (KLTS)
Temperature  
Mean Temperature 86 °F -  
Max Temperature 99 °F 89 °F 105 °F (1998)
Min Temperature 75 °F 68 °F 64 °F (2004)
Cooling Degree Days 22    
Growing Degree Days 36 (Base 50)    
Moisture  
Dew Point 61 °F    
Average Humidity 43    
Maximum Humidity 60    
Minimum Humidity 27    
Precipitation  
Precipitation 0.00 in - - ()
Sea Level Pressure  
Sea Level Pressure 29.81 in    
Wind  
Wind Speed 16 mph (SSE)    
Max Wind Speed 25 mph    
Max Gust Speed 31 mph    
Visibility 10 miles    
Events      
Averages and records for this station are not official NWS values.
T = Trace of Precipitation, MM = Missing Value Source: NWS Daily Summary

Daily Weather History Graph

Daily Weather History Graph

Search for Another Location

Airport or City:

Trip Planner

Search our weather history database for the weather conditions in past years. The results will help you decide how hot, cold, wet, or windy it might be!

Date:

Astronomy

Jun. 24, 2013 Rise Set
Actual Time 6:24 AM CDT 8:51 PM CDT
Civil Twilight 5:55 AM CDT 9:21 PM CDT
Nautical Twilight 5:19 AM CDT 9:57 PM CDT
Astronomical Twilight 4:39 AM CDT 10:37 PM CDT
Moon 10:01 PM CDT (6/24) 7:50 AM CDT (6/24)
Length of Visible Light 15h 25m
Length of Day
14h 26m
Full, 98% of the Moon is Illuminated
Jun 24
Full
Jun 29
Last Quarter
Jul 8
New
Jul 15
First Quarter
Jul 22
Full

Hourly Weather History & Observations

Time (CDT) Temp. Heat Index Dew Point Humidity Pressure Visibility Wind Dir Wind Speed Gust Speed Precip Events Conditions
12:53 AM 82.9 °F 82.6 °F 57.9 °F 42% 29.82 in 10.0 mi SSE 15.0 mph - N/A   Clear
1:53 AM 80.1 °F 80.6 °F 57.9 °F 47% 29.81 in 10.0 mi SSE 15.0 mph - N/A   Clear
2:53 AM 79.0 °F - 59.0 °F 50% 29.81 in 10.0 mi SSE 13.8 mph - N/A   Clear
3:53 AM 77.0 °F - 60.1 °F 56% 29.83 in 10.0 mi SSE 11.5 mph - N/A   Clear
5:53 AM 75.0 °F - 60.1 °F 60% 29.84 in 10.0 mi SSE 11.5 mph - N/A   Clear
6:53 AM 75.0 °F - 60.1 °F 60% 29.86 in 10.0 mi SSE 11.5 mph - N/A   Clear
7:53 AM 75.9 °F - 61.0 °F 60% 29.88 in 10.0 mi SSE 13.8 mph - N/A   Clear
8:53 AM 81.0 °F 82.2 °F 63.0 °F 54% 29.88 in 10.0 mi South 19.6 mph 26.5 mph N/A   Clear
9:53 AM 84.9 °F 85.4 °F 62.1 °F 46% 29.88 in 10.0 mi SSW 23.0 mph 31.1 mph N/A   Clear
10:53 AM 87.1 °F 87.0 °F 61.0 °F 41% 29.88 in 10.0 mi South 24.2 mph 29.9 mph N/A   Clear
11:53 AM 91.0 °F 90.9 °F 61.0 °F 36% 29.88 in 10.0 mi South 19.6 mph 29.9 mph N/A   Clear
12:53 PM 93.9 °F 94.8 °F 62.1 °F 35% 29.85 in 10.0 mi South 21.9 mph 26.5 mph N/A   Clear
1:53 PM 95.0 °F 95.2 °F 61.0 °F 32% 29.83 in 10.0 mi South 20.7 mph 26.5 mph N/A   Clear
2:53 PM 97.0 °F 97.4 °F 61.0 °F 30% 29.80 in 10.0 mi South 17.3 mph 25.3 mph N/A   Clear
3:53 PM 98.1 °F 97.7 °F 59.0 °F 27% 29.78 in 10.0 mi South 18.4 mph 29.9 mph N/A   Clear
4:53 PM 96.1 °F 96.9 °F 62.1 °F 32% 29.77 in 10.0 mi South 25.3 mph 31.1 mph N/A   Clear
5:53 PM 96.1 °F 96.9 °F 62.1 °F 32% 29.75 in 10.0 mi South 23.0 mph 31.1 mph N/A   Clear
6:53 PM 96.1 °F 96.4 °F 61.0 °F 31% 29.74 in 10.0 mi SSE 20.7 mph 31.1 mph N/A   Clear
7:53 PM 93.0 °F 92.7 °F 60.1 °F 33% 29.74 in 10.0 mi South 23.0 mph 28.8 mph N/A   Clear
8:53 PM 90.0 °F 89.1 °F 59.0 °F 35% 29.75 in 10.0 mi SSE 12.7 mph - N/A   Clear
9:53 PM 84.9 °F 85.0 °F 61.0 °F 44% 29.76 in 10.0 mi SE 11.5 mph - N/A   Clear
10:53 PM 82.9 °F 83.3 °F 61.0 °F 47% 29.80 in 10.0 mi SE 10.4 mph - N/A   Clear
11:53 PM 82.0 °F 82.7 °F 61.0 °F 49% 29.79 in 10.0 mi SE 12.7 mph - N/A   Clear